This is the latest recevied weather packets stored in our database for station/object KB5DPX. If no packets are shown the sender has not sent any weather packets the latest 1 day(s).
| Time | Temp. | Humidity | Pressure | Rain* | Wind** | Luminosity | Snow |
|---|---|---|---|---|---|---|---|
| 1778082762 | 6.67° C | 59% | 1013.7 hPa | 0 mm | - | 1025 W/m² | - |
| 1778080948 | 6.11° C | 56% | 1013.4 hPa | 0 mm | - | 858 W/m² | - |
| 1778079154 | 6.11° C | 55% | 1013.2 hPa | 0 mm | - | 782 W/m² | - |
| 1778078860 | 6.11° C | 54% | 1013.2 hPa | 0 mm | - | 770 W/m² | - |
| 1778078565 | 6.11° C | 56% | 1013.2 hPa | 0 mm | - | 758 W/m² | - |
| 1778074658 | 5.56° C | 56% | 1012.7 hPa | 0 mm | - | 585 W/m² | - |
| 1778074059 | 5° C | 57% | 1012.7 hPa | 0 mm | - | 557 W/m² | - |
| 1778072856 | 5° C | 60% | 1012.6 hPa | 0 mm | - | 315 W/m² | - |
| 1778072263 | 5° C | 60% | 1012.8 hPa | 0 mm | - | 366 W/m² | - |
| 1778071967 | 4.44° C | 60% | 1012.8 hPa | 0 mm | - | 420 W/m² | - |
| 1778070762 | 3.89° C | 66% | 1012.6 hPa | 0 mm | - | 399 W/m² | - |
| 1778070460 | 3.89° C | 71% | 1012.7 hPa | 0 mm | - | 339 W/m² | - |
| 1778069565 | 2.78° C | 77% | 1012.3 hPa | 0 mm | - | 320 W/m² | - |
| 1778068646 | 1.67° C | 83% | 1012.3 hPa | 0 mm | - | 269 W/m² | - |
| 1778068359 | 1.67° C | 85% | 1012.3 hPa | 0 mm | - | 251 W/m² | - |
| 1778067762 | 1.11° C | 88% | 1012.2 hPa | 0 mm | - | 218 W/m² | - |
| 1778066848 | 0° C | 89% | 1012 hPa | 0 mm | - | 178 W/m² | - |
| 1778065960 | -1.11° C | 88% | 1011.8 hPa | 0 mm | - | 100 W/m² | - |
| 1778065660 | -1.11° C | 88% | 1011.8 hPa | 0 mm | - | 28 W/m² | - |
| 1778064146 | -1.11° C | 89% | 1011.7 hPa | 0 mm | - | 14 W/m² | - |
| 1778062660 | -1.11° C | 88% | 1011.5 hPa | 0 mm | - | 0 W/m² | - |
| 1778060543 | 1.11° C | 82% | 1011.5 hPa | 0 mm | - | 0 W/m² | - |
| 1778060258 | 1.11° C | 81% | 1011.4 hPa | 0 mm | - | 0 W/m² | - |
| 1778059944 | 1.11° C | 81% | 1011.3 hPa | 0 mm | - | 0 W/m² | - |
| 1778059363 | 1.67° C | 81% | 1011.3 hPa | 0 mm | - | 0 W/m² | - |
* Rain latest hour (hover to see other rain measurements)
** Current wind speed in m/s (hover to see current wind gust speed)